Hourly Data Report for September 30, 2021

WINNIPEG THE FORKS
MANITOBA
Current Station Operator: ECCC - MSC

49°53'18.008" N
97°07'46.007" W
230.00 m
5023262
71579
XWN

Download Data

Hourly Data (September 2021)
Hourly Data Report for September 30, 2021
TIME
LST
Temp Definition
°C
Dew Point Definition
°C
Rel Hum Definition
%
Precip. Amount Definition
mm

Wind Dir Definition
10's deg

Wind Spd Definition
km/h
Visibility Definition
km
Stn Press Definition
kPa
Hmdx Definition


Wind Chill Definition


Weather Definition


00:00 19.6 11.8 61 0.0 33 8   98.70     LegendNANA
01:00 18.9 11.3 61 0.0 33 6   98.75     LegendNANA
02:00 17.6 11.4 67 0.0 2 2   98.77     LegendNANA
03:00 17.0 11.6 70 0.0   0   98.85     LegendNANA
04:00 17.4 11.8 70 0.0 26 5   98.96     LegendNANA
05:00 16.8 12.0 73 0.0 27 4   99.02     LegendNANA
06:00 16.2 12.0 76 0.0 29 4   99.03     LegendNANA
07:00 16.1 12.4 79 0.0 32 7   99.06     LegendNANA
08:00 16.0 12.5 80 0.0 33 7   99.09     LegendNANA
09:00 17.2 12.7 75 0.0 35 11   99.11     LegendNANA
10:00 18.4 13.0 71 0.0 35 11   99.16     LegendNANA
11:00 19.5 13.6 69 0.0 1 7   99.19     LegendNANA
12:00 20.6 13.5 64 0.0 34 9   99.20     LegendNANA
13:00 21.5 13.2 59 0.0 36 7   99.18     LegendNANA
14:00 21.8 13.5 59 0.0 36 9   99.18 25   LegendNANA
15:00 21.7 12.3 55 0.0 35 9   99.18     LegendNANA
16:00 21.2 12.6 58 0.0 34 8   99.20     LegendNANA
17:00 20.3 13.0 63 0.0 3 8   99.22     LegendNANA
18:00 18.8 13.0 69 0.0 1 8   99.25     LegendNANA
19:00 17.4 12.5 73 0.0 3 5   99.29     LegendNANA
20:00 16.2 12.3 78 0.0 3 2   99.28     LegendNANA
21:00 15.2 12.0 81 0.0 3 2   99.29     LegendNANA
22:00 14.9 12.1 84 0.0 34 5   99.27     LegendNANA
23:00 14.1 11.8 86 0.0 1 1   99.25     LegendNANA

Notes on Data Quality.

Legend

  • E = Estimated
  • M = Missing
  • NA = Not Available*
  • [empty] = Indicates an unobserved value
Date modified: